Tracking 18852 objects as of 23-Nov-2017
HD Live streaming from Space Station
objects crossing your sky now

COSMOS 793

Track COSMOS 793 now!
10-day predictions
COSMOS 793 is classified as:


NORAD ID: 8609
Int'l Code: 1976-008C
Perigee: 1,424.7 km
Apogee: 1,496.9 km
Inclination: 74.1 °
Period: 115.0 minutes
Semi major axis: 7831 km
RCS: 0.6882 m2 (medium)
Launch date: January 28, 1976
Source: Commonwealth of Independent States (former USSR) (CIS)
Launch site: PLESETSK MISSILE AND SPACE COMPLEX (PKMTR)
aabbcc
Your satellite tracking list
Your tracking list is empty




NASA's NSSDC Master Catalog

Two Line Element Set (TLE):
1 08609U 76008C   17326.53949214 -.00000019  00000-0 -22268-4 0  9996
2 08609  74.0549  94.4419 0046057  55.3942  25.0358 12.52597796912395
Source of the keplerian elements: AFSPC